FENGYUN 1C DEB, 30160

Orbit data source: Space-Track

FENGYUN 1C DEB, 30160 is space debris in SSO originally from a launch on Mon, 10 May 1999 UTC launched from the Taiyaun Space Center, China (TSC). Fengyun 1C debris stems from the Chinese weather satellite Fengyun-1C, which was intentionally destroyed by a Chinese anti-satellite missile in 2007. This event dramatically increased the amount of space debris, with thousands of trackable fragments posing hazards to satellites and human spaceflight. The Fengyun 1C debris cloud has become a focal point in discussions about space sustainability and the need for international regulations to prevent the creation of new debris.

Loading next visibility...
Identifier
30160, 1999-025TR
Orbit
SSO
Country
Flag of CNCN / PRC
Related business
Manufacturer
Unknown
Mission
Spacecraft
Bus & Motor
Unknown
Mass
Unknown
Launch date (UTC)
1999-05-10 (27 years ago)
Launch vehicle
Unknown
Launch site
Taiyaun Space Center, China (TSC)
Object type
Payload
Rocket body
Debris
Shape & HBR
Unknown shape, 0.2 m
Radar Cross Section
Small (<0.1 m²)

Expand to show TLE details & history
Last TLE update: 16 hours ago

TLE from 16 hours ago
0 FENGYUN 1C DEB
1 30160U 99025TR  26062.82383574  .00000688  00000-0  89937-3 0  9992
2 30160  98.8936   6.9865 0342274 283.8393 130.6735 13.43080884935020
Epoch: 2026-03-03T19:46Z
TLE epoch observation values (Epoch: 2026-03-03T19:46:19.407Z)
Latitude
56.43663°
Longitude
-104.76412°
Altitude
1,278.854 km
Speed
7.138 km/s
True Right ascension
23h 33m 39s
True Declination
56° 17' 20"
Sunlit
Object was in daylight at epoch
Visualization orbit readout
Latitude
Unknown
Longitude
Unknown
Altitude
Unknown
Speed
Unknown
Apparent Right ascension
Unknown
Apparent Declination
Unknown
Sunlit
N/A
Visualization observer readout
Local Sidereal Time
15:30:00
Azimuth
Unknown
Elevation
Unknown
Doppler factor
Unknown
Orbital elements
Apogee altitude
1,350.88 km
Perigee altitude
839.302 km
Semi-major axis
7,473.228 km
Eccentricity
0.03423
Inclination
98.8936°
RAAN
6.9865°
Arg. of periapsis
283.8393°
True anomaly
133.56621°
Mean anomaly
130.6735°
Eccentric anomaly
132.12794°
Mean motion
3.35955 °/min
Orbital period
107.16 mins
BSTAR
0.00089937
Loading maneuver chart data...
Computing Atmospheric mass density...

Documentation

Showing up to 5 results
|